COSMOS 1743

Last updated on Mon Sep 21 2026 00:02:08 GMT+0000 (Coordinated Universal Time)

1 16719U 86034A 26263.39873446 .00064099 00000+0 39672-3 0 9995 2 16719 82.5228 226.7715 0001906 115.7591 244.3871 15.76844886210748
UTC large
Height (km)
Speed (km/s)
/
Latitude / Longitude
Inclination (degrees)
Orbital Period (minutes)
Azimuth
Elevation
Range (km)
Doppler Factor

Next 0 passes for location: London (51.5072 / 0.1276)

No passes found over London.
COSMOS 1743